Lumberton, NC

10:59 PM EST on December 12, 2017 (GMT -0500)
Lumberton Municipal

Weather History for KLBT - January, 2014

Change the Weather History Date:

Tuesday, January 14, 2014

  Actual Average Record
Temperature  
Mean Temperature 48 °F 43 °F  
Max Temperature 56 °F 53 °F 76 °F (2013)
Min Temperature 39 °F 33 °F 18 °F (2011)
Degree Days  
Heating Degree Days 17 22  
Month to date heating degree days 299 307  
Since 1 July heating degree days 1296 1357  
Cooling Degree Days 0 0  
Month to date cooling degree days 0 0  
Year to date cooling degree days 0 0  
Moisture  
Dew Point 48 °F    
Average Humidity 86    
Maximum Humidity 100    
Minimum Humidity 71    
Precipitation  
Precipitation 0.33 in 0.08 in 1.02 in (2005)
Month to date precipitation 2.72 1.19  
Year to date precipitation 2.72 1.19  
Sea Level Pressure  
Sea Level Pressure 29.90 in    
Wind  
Wind Speed 4 mph (SW)    
Max Wind Speed 16 mph    
Max Gust Speed 20 mph    
Visibility 4 miles    
Events Fog , Rain    
T = Trace of Precipitation, MM = Missing Value Source: NWS Daily Summary

Daily Weather History Graph

Daily Weather History Graph

Search for Another Location

Airport or City:

Trip Planner

Search our weather history database for the weather conditions in past years. The results will help you decide how hot, cold, wet, or windy it might be!

Date:

Astronomy

Jan. 14, 2014 Rise Set
Actual Time 7:23 AM EST 5:27 PM EST
Civil Twilight 6:55 AM EST 5:55 PM EST
Nautical Twilight 6:24 AM EST 6:26 PM EST
Astronomical Twilight 5:54 AM EST 6:56 PM EST
Moon 4:30 PM EST (1/14) 5:57 AM EST (1/14)
Length of Visible Light 10h 59m
Length of Day
10h 04m
Waxing Gibbous, 98% of the Moon is Illuminated
Jan 14
Waxing Gibbous
Jan 15
Full
Jan 24
Last Quarter
Jan 30
New
Feb 6
First Quarter

Hourly Weather History & Observations

Time (EST) Temp. Windchill Dew Point Humidity Pressure Visibility Wind Dir Wind Speed Gust Speed Precip Events Conditions
12:54 AM 52.0 °F - 46.0 °F 80% 29.94 in 10.0 mi SSE 3.5 mph - N/A   Mostly Cloudy
1:54 AM 52.0 °F - 46.9 °F 83% 29.90 in 6.0 mi Calm Calm - 0.00 in Rain Light Rain
2:54 AM 51.1 °F - 48.9 °F 92% 29.91 in 7.0 mi Calm Calm - 0.03 in Rain Light Rain
3:54 AM 51.1 °F - 48.9 °F 92% 29.87 in 9.0 mi ESE 4.6 mph - 0.03 in   Overcast
4:54 AM 52.0 °F - 51.1 °F 97% 29.84 in 9.0 mi Calm Calm - 0.02 in Rain Light Rain
5:54 AM 52.0 °F - 51.1 °F 97% 29.80 in 4.0 mi East 5.8 mph - 0.00 in   Overcast
6:49 AM 51.8 °F - 51.8 °F 100% 29.80 in 5.0 mi ESE 3.5 mph - N/A   Overcast
6:50 AM 52.0 °F - 51.1 °F 97% 29.80 in 5.0 mi ESE 3.5 mph - N/A   Overcast
7:13 AM 52.0 °F - 51.1 °F 97% 29.84 in 5.0 mi West 4.6 mph - 0.01 in   Overcast
7:51 AM 51.8 °F - 51.8 °F 100% 29.84 in 4.0 mi West 3.5 mph - 0.01 in   Overcast
7:54 AM 52.0 °F - 52.0 °F 100% 29.84 in 4.0 mi WSW 3.5 mph - 0.01 in   Overcast
8:21 AM 52.0 °F - 51.1 °F 97% 29.83 in 2.5 mi WNW 3.5 mph - 0.00 in Rain Light Rain
8:54 AM 52.0 °F - 51.1 °F 97% 29.83 in 2.5 mi Calm Calm - 0.00 in   Overcast
9:16 AM 53.1 °F - 52.0 °F 96% 29.81 in 1.8 mi ESE 5.8 mph - N/A   Overcast
9:29 AM 53.1 °F - 53.1 °F 100% 29.83 in 1.5 mi West 5.8 mph - N/A   Overcast
9:43 AM 53.1 °F - 53.1 °F 100% 29.83 in 0.8 mi South 3.5 mph - N/A   Overcast
9:54 AM 54.0 °F - 53.1 °F 97% 29.83 in 0.2 mi Calm Calm - N/A Fog Fog
10:25 AM 54.0 °F - 54.0 °F 100% 29.82 in 1.2 mi SSW 6.9 mph - 0.00 in Rain Light Rain
10:29 AM 55.0 °F - 54.0 °F 96% 29.82 in 2.0 mi South 6.9 mph - 0.00 in Rain Light Rain
10:47 AM 55.0 °F - 54.0 °F 96% 29.82 in 3.0 mi SW 9.2 mph - 0.01 in   Overcast
10:54 AM 55.0 °F - 54.0 °F 96% 29.83 in 4.0 mi SSW 8.1 mph - 0.01 in   Overcast
11:14 AM 55.0 °F - 54.0 °F 96% 29.81 in 4.0 mi SW 9.2 mph - N/A   Overcast
11:27 AM 55.0 °F - 54.0 °F 96% 29.81 in 1.8 mi SW 8.1 mph - N/A   Overcast
11:35 AM 55.0 °F - 54.0 °F 96% 29.81 in 1.5 mi SW 8.1 mph - N/A   Overcast
11:54 AM 55.9 °F - 54.0 °F 93% 29.81 in 1.8 mi SW 10.4 mph - 0.01 in Rain Light Rain
11:59 AM 55.9 °F - 54.0 °F 93% 29.81 in 1.0 mi WSW 10.4 mph - 0.03 in Rain Heavy Rain
12:06 PM 55.9 °F - 55.0 °F 97% 29.81 in 0.8 mi WSW 11.5 mph - 0.06 in Rain Heavy Rain
12:11 PM 55.9 °F - 54.0 °F 93% 29.82 in 1.2 mi WSW 10.4 mph - 0.07 in Rain Light Rain
12:25 PM 55.9 °F - 54.0 °F 93% 29.82 in 1.0 mi WSW 15.0 mph - 0.12 in Rain Rain
12:31 PM 55.9 °F - 54.0 °F 93% 29.82 in 1.8 mi West 12.7 mph - 0.14 in Rain Rain
12:41 PM 55.9 °F - 54.0 °F 93% 29.83 in 1.5 mi WSW 15.0 mph - 0.17 in Rain Heavy Rain
12:52 PM 55.4 °F - 53.6 °F 94% 29.82 in 2.0 mi West 11.5 mph - 0.20 in Rain Rain
12:54 PM 55.0 °F - 54.0 °F 96% 29.82 in 2.5 mi West 13.8 mph - 0.20 in Rain Rain
1:03 PM 55.0 °F - 53.1 °F 93% 29.83 in 5.0 mi West 15.0 mph - 0.01 in Rain Light Rain
1:22 PM 55.0 °F - 53.1 °F 93% 29.82 in 10.0 mi West 10.4 mph - 0.01 in   Overcast
1:54 PM 55.0 °F - 53.1 °F 93% 29.83 in 10.0 mi West 8.1 mph - 0.02 in   Overcast
2:54 PM 54.0 °F - 50.0 °F 86% 29.86 in 10.0 mi WNW 11.5 mph - N/A   Overcast
3:54 PM 54.0 °F - 50.0 °F 86% 29.88 in 10.0 mi WSW 4.6 mph - N/A   Mostly Cloudy
4:07 PM 55.0 °F - 48.9 °F 80% 29.88 in 10.0 mi West 4.6 mph - N/A   Scattered Clouds
4:25 PM 55.0 °F - 48.9 °F 80% 29.89 in 10.0 mi Variable 3.5 mph - N/A   Mostly Cloudy
4:52 PM 53.6 °F - 48.2 °F 82% 29.90 in 10.0 mi WNW 4.6 mph - N/A   Scattered Clouds
4:54 PM 54.0 °F - 48.9 °F 83% 29.90 in 10.0 mi WNW 4.6 mph - N/A   Partly Cloudy
5:54 PM 48.9 °F - 48.0 °F 97% 29.92 in 10.0 mi WSW 4.6 mph - N/A   Clear
6:23 PM 46.9 °F - 46.0 °F 97% 29.93 in 1.8 mi Calm Calm - N/A   Clear
6:33 PM 46.9 °F - 46.9 °F 100% 29.94 in 3.0 mi Calm Calm - N/A   Clear
6:54 PM 45.0 °F - 45.0 °F 100% 29.95 in 7.0 mi Calm Calm - N/A   Clear
6:57 PM 46.0 °F - 45.0 °F 96% 29.95 in 1.5 mi Calm Calm - N/A   Clear
7:00 PM 45.0 °F - 45.0 °F 100% 29.95 in 0.8 mi Calm Calm - N/A   Clear
7:10 PM 46.0 °F - 44.1 °F 93% 29.95 in 1.2 mi Calm Calm - N/A   Clear
7:13 PM 45.0 °F - 43.0 °F 93% 29.95 in 2.0 mi Calm Calm - N/A   Clear
7:18 PM 45.0 °F - 43.0 °F 93% 29.95 in 1.5 mi Calm Calm - N/A   Clear
7:22 PM 46.0 °F - 43.0 °F 89% 29.95 in 0.8 mi Calm Calm - N/A   Clear
7:33 PM 45.0 °F - 45.0 °F 100% 29.95 in 1.2 mi Calm Calm - N/A   Clear
7:36 PM 45.0 °F - 44.1 °F 97% 29.95 in 1.0 mi Calm Calm - N/A   Mist
7:43 PM 44.1 °F - 44.1 °F 100% 29.95 in 0.5 mi Calm Calm - N/A Fog Fog
7:51 PM 44.6 °F - 42.8 °F 93% 29.95 in 1.2 mi Calm Calm - N/A   Partly Cloudy
7:54 PM 44.1 °F - 43.0 °F 96% 29.95 in 2.0 mi Calm Calm - N/A   Partly Cloudy
7:58 PM 44.1 °F - 43.0 °F 96% 29.95 in 1.5 mi Calm Calm - N/A   Partly Cloudy
8:02 PM 43.0 °F - 43.0 °F 100% 29.96 in 0.8 mi Calm Calm - N/A   Mist
8:54 PM 42.1 °F - 41.0 °F 96% 29.98 in 0.2 mi Calm Calm - N/A Fog Fog
9:08 PM 42.1 °F - 42.1 °F 100% 29.98 in 1.2 mi Calm Calm - N/A   Clear
9:16 PM 41.0 °F - 41.0 °F 100% 29.99 in 3.0 mi Calm Calm - N/A   Clear
9:30 PM 41.0 °F - 39.9 °F 96% 29.99 in 2.5 mi Calm Calm - N/A   Partly Cloudy
9:46 PM 41.0 °F - 39.9 °F 96% 29.99 in 1.8 mi Calm Calm - N/A   Clear
9:54 PM 41.0 °F - 39.0 °F 93% 30.00 in 2.5 mi Calm Calm - N/A   Clear
10:03 PM 39.9 °F - 39.9 °F 100% 30.00 in 3.0 mi Calm Calm - N/A   Clear
10:44 PM 39.9 °F - 39.0 °F 97% 30.00 in 5.0 mi Calm Calm - N/A   Scattered Clouds
10:54 PM 39.9 °F - 39.9 °F 100% 30.00 in 2.5 mi Calm Calm - N/A   Mostly Cloudy
10:57 PM 39.9 °F - 39.9 °F 100% 30.00 in 1.2 mi Calm Calm - N/A   Mostly Cloudy
10:59 PM 39.9 °F - 39.9 °F 100% 30.00 in 0.8 mi Calm Calm - N/A   Mist
11:40 PM 39.0 °F 35.7 °F 39.0 °F 100% 29.99 in 1.5 mi SE 4.6 mph - N/A   Overcast
11:42 PM 39.0 °F 35.7 °F 39.0 °F 100% 29.99 in 3.0 mi SE 4.6 mph - N/A   Mostly Cloudy
11:47 PM 39.0 °F 36.8 °F 39.0 °F 100% 29.98 in 1.5 mi SE 3.5 mph - N/A   Mostly Cloudy
11:54 PM 39.0 °F 36.8 °F 39.0 °F 100% 29.99 in 1.2 mi SE 3.5 mph - N/A   Mostly Cloudy
11:58 PM 39.0 °F 36.8 °F 39.0 °F 100% 29.98 in 2.0 mi ESE 3.5 mph - N/A   Mostly Cloudy